Regional Weather Roundup
Issued by NWS

Home | Current Version | Previous Version | Graphics & Text | Print | Product List | Glossary On
Versions: 1 2 3 4 5 6 7 8 9 10 11 12 13 14 15 16 17 18 19 20 21 22 23 24 25 26 27 28 29 30 31 32 33 34 35 36 37 38 39 40 41 42 43 44 45 46 47 48 49 50
000
ASUS43 KIND 280709
RWRIN

WEATHER ROUNDUP FOR INDIANA
NATIONAL WEATHER SERVICE INDIANAPOLIS IN
300 AM EDT MON JUL 28 2014

NOTE: "FAIR" INDICATES FEW OR NO CLOUDS BELOW 12,000 FEET WITH NO
SIGNIFICANT WEATHER AND/OR OBSTRUCTIONS TO VISIBILITY.

* - STATION DOES NOT REPORT WEATHER SUCH AS PRECIPITATION OR FOG.

+ - STATION NOT QUALITY CONTROLLED BY THE NATIONAL WEATHER SERVICE.
    USE DATA WITH CAUTION...ESPECIALLY DEWPOINT AND RELATIVE
    HUMIDITY OBSERVATIONS.

INZ001>003-010>013-019-020-280800-
NORTHWEST INDIANA

CITY           SKY/WX    TMP DP  RH WIND       PRES   REMARKS
GARY /AIRPORT/ CLOUDY    66  54  66 N21G31    29.92R
KNOX *+        CLOUDY    62  56  80 N14G20    29.85F
LA PORTE +     CLOUDY    61  56  83 N20G25    29.87F
MICHIGAN CITY+ CLOUDY    63  54  72 N17G28    29.88R
MONTICELLO +   CLOUDY    64  59  85 N14G22    29.86S
RENSSELAER +   CLOUDY    63  59  88 NW7G16    29.89S
VALPARAISO     CLOUDY    63  55  75 N14G22    29.89R

$$

LMZ046-743>745-280800-
SOUTHERN LAKE MICHIGAN

STATION/POSITION TIME  TEMP WIND        PRES
                       AIR  DIR/SP/G
                 (UTC) (F)  (DEG/KT/KT) (MB)
BURNS HARBOR     0600   65  360/ 25     1011.9F
MICHIGAN CITY    0700   64  340/ 32/ 40   N/A

$$

INZ004-005-014>016-021>024-280800-
NORTH CENTRAL INDIANA

CITY           SKY/WX    TMP DP  RH WIND       PRES   REMARKS
GOSHEN         CLOUDY    64  58  80 NW15      29.82R
LOGANSPORT +   CLOUDY    63  55  77 NW12G17   29.84F
PERU/GRISSOM   CLOUDY    65  63  95 NW14      29.83S
ROCHESTER +    CLOUDY    64  57  77 N14G29    29.84R
SOUTH BEND     CLOUDY    64  58  80 N16       29.85R
WARSAW +       CLOUDY    63  57  82 NW10G17   29.82S

$$

INZ006>009-017-018-025>027-280800-
NORTHEAST INDIANA

CITY           SKY/WX    TMP DP  RH WIND       PRES   REMARKS
ANGOLA *+      CLOUDY    63  54  72 NW9       29.80R
AUBURN +       MOCLDY    63  57  82 NW6       29.80R
FORT WAYNE     CLOUDY    64  58  80 NW8       29.79F
HUNTINGTON +   CLOUDY    64  58  83 NW10G16   29.80S

$$

INZ028-029-035-036-043>045-051>053-280800-
WEST CENTRAL INDIANA

CITY           SKY/WX    TMP DP  RH WIND       PRES   REMARKS
GREENCASTLE +  PTCLDY    64  57  77 NW7       29.89R
LAFAYETTE      CLOUDY    64  59  83 NW10      29.87R
TERRE HAUTE    MOCLDY    67  58  72 NW8       29.89R

$$

INZ030>032-037>040-046>048-054>057-064-065-280800-
CENTRAL INDIANA

CITY           SKY/WX    TMP DP  RH WIND       PRES   REMARKS
CP ATTERBURY + CLEAR     64  57  77 W7        29.86S
INDIANAPOLIS   CLEAR     65  58  78 NW13      29.85R
-EAGLE CREEK   CLEAR     65  57  75 NW12      29.85R
KOKOMO *+      MOCLDY    63  57  82 NW12      29.83F
MARION +       CLOUDY    63  57  82 NW12      29.82F
MT COMFORT *+  CLEAR     64  63  94 W9        29.85S
SHELBYVILLE    CLEAR     67  58  72 NW9       29.84R
ZIONSVILLE +   PTCLDY    63  57  81 NW8       29.87R

$$

INZ033-034-041-042-049-050-058-059-280800-
EAST CENTRAL INDIANA

CITY           SKY/WX    TMP DP  RH WIND       PRES   REMARKS
MUNCIE         MOCLDY    63  57  81 NW13      29.82R

$$

INZ060-061-067>069-081>083-085>088-280800-
SOUTHWEST INDIANA

CITY           SKY/WX    TMP DP  RH WIND       PRES   REMARKS
EVANSVILLE     CLEAR     69  58  67 W5        29.93S
WASHINGTON +   CLEAR     65  60  83 NW6       29.90S

$$

INZ062-063-066-070>080-084-089>092-280800-
SOUTH CENTRAL AND SOUTHEAST INDIANA

CITY           SKY/WX    TMP DP  RH WIND       PRES   REMARKS
BEDFORD +      CLEAR     66  55  68 W5        29.89
BLOOMINGTON    CLEAR     65  58  78 W9        29.88S

$$




USA.gov is the U.S. government's official web portal to all federal, state and local government web resources and services.